EHI
0 0 0 0 0 0 0 0 0 0 0 0 0 0 0 0 0 0 0 0 0 0 0 0 0 0 0 0 0 0 0 0 0 0 0 0 0 0 0 0 0 0 0 0
0 0 0 0 0 0 0 0 0 0 0 0 0 0 0 0 0 0 0 0 0 0 0 0 0 0 0 0 0 0 0 0 0 0 0 0 0 0 0 0 0 0 0 0
0 0 0 0 0 0 0 0 0 0 0 0 0 0 0 0 0 0 0 0 0 0 0 0 0 0 0 0 0 0 0 0 0 0 0 0 0 0 0 0 0 0 0 0
0 0 0 0 0 0 0 0 0 0 0 0 0 0 0 0 0 0 0 0 0 0 0 0 0 0 0 0 0 0 0 0 0 0 0 0 0 0 0 0 0 0 0 0
0 0 0 0 0 0 0 0 0 0 0 0 0 0 0 0 0 0 0 0 0 0 0 0 0 0 0 0 0 0 0 0 0 0 0 0 0 0 0 0 0 0 0 0
0 0 0 0 0 0 0 0 0 0 0 0 0 0 0 0 0 0 0 0 0 0 0 0 0 0 0 0 0 0 0 0 0 0 0 0 0 0 0 0 0 0 0 0
0 0 0 0 0 0 0 0 0 0 0 0 0 0 0 0 0 0 0 0 0 0 0 0 0 0 0 0 0 0 0 0 0 0 0 0 0 0 0 0 0 0 0 0
0 0 0 0 0 0 0 0 0 0 0 0 0 0 0 0 0 0 0 0 0 0 0 0 0 0 0 0 0 0 0 0 0 0 0 0 0 0 0 0 0 0 0 0
0 0 0 0 0 0 0 0 0 0 0 0 0 0 0 0 0 0 0 0 0 0 0 0 0 0 0 0 0 0 0 0 0 0 0 0 0 0 0 0 0 0 0 0
0 0 0 0 0 0 0 0 0 0 0 0 0 0 0 0 0 0 0 0 0 0 0 0 0 0 0 0 0 0 0 0 0 0 0 0 0 0 0 0 0 0 0 0
0 0 0 0 0 0 0 0 0 0 0 0 0 0 0 0 0 0 0 0 0 0 0 0 0 0 0 0 0 0 0 0 0 0 0 0 0 0 0 0 0 0 0 0
0 0 0 0 0 0 0 0 0 0 0 0 0 0 0 0 0 0 0 0 0 0 0 0 0 0 0 0 0 0 0 0 0 0 0 0 0 0 0 0 0 0 0 0
0 0 0 0 0 0 0 0 0 0 0 0 0 0 0 0 0 0 0 0 0 0 0 0 0 0 0 0 0 0 0 0 0 0 0 0 0 0 0 0 0 0 0 0
0 0 0 0 0 0 0 0 0 0 0 0 0 0 0 0 0 0 0 0 0 0 0 0 0 0 0 0 0 0 0 0 0 0 0 0 0 0 0 0 0 0 0 0
0 0 0 0 0 0 0 0 0 0 0 0 0 0 0 0 0 0 0 0 0 0 0 0 0 0 0 0 0 0 0 0 0 0 0 0 0 0 0 0 0 0 0 0
0 0 0 0 0 0 0 0 0 0 0 0 0 0 0 0 0 0 0 0 0 0 0 0 0 0 0 0 0 0 0 0 0 0 0 0 0 0 0 0 0 0 0 0
0 0 0 0 0 0 0 0 0 0 0 0 0 0 0 0 0 0 0 0 0 0 0 0 0 0 0 0 0 0 0 0 0 0 0 0 0 0 0 0 0 0 0 0
0 0 0 0 0 0 0 0 0 0 0 0 0 0 0 0 0 0 0 0 0 0 0 0 0 0 0 0 0 0 0 0 0 0 0 0 0 0 0 0 0 0 0 0
0 0 0 0 0 0 0 0 0 0 0 0 0 0 0 0 0 0 0 0 0 0 0 0 0 0 0 0 0 0 0 0 0 0 0 0 0 0 0 0 0 0 0 0
0 0 0 0 0 0 0 0 0 0 0 0 0 0 0 0 0 0 0 0 0 0 0 0 0 0 0 0 0 0 0 0 0 0 0 0 0 0 0 0 0 0 0 0
0 0 0 0 0 0 0 0 0 0 0 0 0 0 0 0 0 0 0 0 0 0 0 0 0 0 0 0 0 0 0 0 0 0 0 0 0 0 0 0 0 0 0 0
0 0 0 0 0 0 0 0 0 0 0 0 0 0 0 0 0 0 0 0 0 0 0 0 0 0 0 0 0 0 0 0 0 0 0 0 0 0 0 0 0 0 0 0
0 0 0 0 0 0 0 0 0 0 0 0 0 0 0 0 0 0 0 0 0 0 0 0 0 0 0 0 0 0 0 0 0 0 0 0 0 0 0 0 0 0 0 0
0 0 0 0 0 0 0 0 0 0 0 0 0 0 0 0 0 0 0 0 0 0 0 0 0 0 0 0 0 0 0 0 0 0 0 0 0 0 0 0 0 0 0 0
0 0 0 0 0 0 0 0 0 0 0 0 0 0 0 0 0 0 0 0 0 0 0 0 0 0 0 0 0 0 0 0 0 0 0 0 0 0 0 0 0 0 0 0
0 0 0 0 0 0 0 0 0 0 0 0 0 0 0 0 0 0 0 0 0 0 0 0 0 0 0 0 0 0 0 0 0 0 0 0 0 0 0 0 0 0 0 0
Wind_Speed
2 3 2 5 5 3 3 3 4 5 3 2 6 9 9 6 3 4 5 5 5 6 6 4 4 3 2 2 2 2 2 1 1 1 1 1 1 0 1 1 1 0 1 3
3 2 4 2 2 2 2 2 4 4 2 2 5 9 8 5 5 5 5 5 5 5 5 5 5 3 2 2 2 2 2 2 2 2 1 1 1 0 0 1 1 1 2 2
5 3 1 3 2 2 2 4 4 3 4 2 4 8 5 4 3 4 4 4 4 4 5 5 4 3 3 2 2 2 2 2 2 2 2 2 2 1 1 1 1 1 2 2
3 3 2 2 3 4 4 4 4 2 1 4 1 6 7 4 4 4 4 4 4 4 4 4 4 4 3 2 2 1 1 1 2 3 3 3 2 1 1 1 1 1 1 2
3 2 3 3 4 5 4 0 1 1 2 2 1 3 9 2 5 6 5 5 4 4 3 4 4 4 3 2 1 1 0 1 2 2 3 3 2 1 1 1 1 1 1 2
3 2 2 3 1 3 2 3 3 3 3 3 4 4 9 5 6 5 4 4 4 3 3 3 3 3 2 2 1 0 1 1 2 2 2 3 3 3 3 2 1 1 1 1
3 2 1 2 2 2 3 4 3 4 2 6 2 4 11 7 6 5 5 5 4 2 2 3 3 3 2 2 1 0 1 1 1 2 2 2 2 3 3 3 2 2 2 1
2 5 3 2 4 4 3 5 5 4 5 5 2 7 9 5 4 3 3 3 3 2 2 3 3 3 2 2 1 1 1 1 1 1 2 2 2 2 2 2 2 2 2 2
4 5 1 1 1 6 4 3 3 4 1 4 6 7 9 3 3 2 2 2 3 3 3 3 3 2 2 2 2 2 2 1 1 2 1 2 2 2 2 1 1 1 1 1
4 3 3 1 1 1 3 6 4 3 3 5 6 6 6 4 5 4 4 4 4 4 3 3 3 2 2 2 2 1 2 2 2 2 2 1 2 2 2 2 2 1 2 2
1 2 3 1 5 6 3 3 3 3 3 4 5 8 6 6 5 5 5 5 4 4 4 3 3 2 2 2 1 1 1 2 2 2 2 1 1 1 2 2 2 2 2 2
1 2 3 6 4 3 5 6 6 4 5 4 4 10 4 4 4 4 5 5 4 4 3 3 2 2 2 2 1 1 1 1 2 2 2 2 1 1 1 1 1 2 2 1
2 2 2 4 2 0 2 3 4 2 2 4 5 11 3 2 3 3 4 5 4 4 3 2 2 2 2 2 2 1 1 1 1 1 2 2 1 2 1 1 1 2 2 2
1 3 6 8 5 3 5 5 4 4 4 6 10 11 9 7 6 5 5 5 4 4 3 3 2 2 2 2 1 1 1 1 1 1 1 2 1 2 2 1 1 2 2 2
2 4 6 8 6 5 8 9 8 10 10 10 11 11 13 9 8 6 4 3 3 3 3 3 3 2 2 2 2 1 1 1 1 1 1 1 1 1 1 1 1 1 1 2
1 3 3 6 5 6 10 11 12 12 11 12 11 15 11 7 4 4 4 4 5 5 5 4 3 3 2 2 2 1 1 1 1 1 1 1 1 1 1 1 1 1 1 1
3 3 2 5 3 4 10 11 12 9 8 8 12 13 6 4 6 6 6 5 7 7 5 5 4 4 4 3 3 2 2 0 1 1 1 1 1 1 1 1 1 1 1 1
6 4 3 3 1 9 9 3 6 8 8 8 8 7 5 7 6 4 4 6 7 6 5 5 4 4 3 2 2 1 0 1 1 1 1 1 1 1 1 1 1 1 1 2
7 6 4 3 5 10 8 4 4 6 8 7 9 8 6 3 2 4 4 5 6 6 5 4 4 3 2 2 2 2 1 0 0 1 1 1 1 1 1 1 2 2 1 2
2 4 4 4 5 8 6 3 2 2 6 4 5 6 3 2 1 6 4 3 3 3 2 1 1 1 1 1 2 2 1 0 1 2 1 1 1 1 2 2 2 1 2 2
1 2 6 7 8 9 5 2 2 3 7 4 4 4 3 5 6 4 2 2 2 1 1 1 2 2 2 1 2 2 1 2 2 1 0 0 1 1 2 1 1 1 1 1
7 6 6 4 7 10 1 3 5 6 4 3 3 3 4 5 4 3 2 1 0 0 1 2 2 1 1 1 2 1 1 2 1 0 0 1 1 1 1 1 1 1 1 1
7 8 6 8 8 4 3 5 6 4 5 5 4 4 3 4 4 3 2 1 1 1 1 1 2 1 0 1 2 2 2 1 0 1 1 1 1 1 1 1 1 1 1 1
5 3 4 6 8 6 6 6 6 5 6 5 5 4 3 4 3 2 2 1 1 1 1 1 2 1 0 1 1 1 1 0 1 0 1 1 1 1 2 1 1 1 1 2
7 4 4 8 8 7 7 7 6 6 5 4 4 3 3 3 3 2 2 2 1 1 0 1 1 1 1 1 0 0 0 1 1 0 1 1 1 1 1 2 2 2 2 3
6 7 7 9 7 6 9 7 5 5 6 5 4 4 3 3 3 2 2 2 1 1 0 0 0 0 0 0 0 1 0 1 1 0 1 1 1 1 1 1 3 4 4 5
Wind_Direction
47 76 198 213 199 191 165 196 255 264 271 263 254 264 270 269 258 265 273 279 287 288 288 307 315 312 312 313 305 278 233 197 153 147 146 141 157 145 132 118 108 132 141 128
49 253 235 188 167 155 173 225 261 282 293 257 277 274 266 248 236 236 250 265 276 296 317 328 329 322 311 301 295 273 231 192 178 174 173 142 126 116 118 95 106 146 134 125
190 231 175 149 152 166 224 209 230 257 326 333 316 297 267 263 243 253 256 258 269 280 298 311 320 311 312 305 290 278 239 196 182 152 123 98 79 65 53 72 92 118 129 125
230 250 169 176 207 174 250 227 214 238 330 298 19 296 283 272 289 274 271 277 279 284 291 297 306 307 300 285 292 292 229 177 171 158 154 149 147 156 216 208 180 139 133 129
246 210 179 207 222 180 218 202 189 211 180 297 262 245 283 296 274 269 265 269 279 284 285 291 295 284 286 287 292 282 165 163 158 157 162 159 147 143 137 134 131 126 125 138
251 253 208 203 177 164 148 66 52 53 77 279 228 199 277 241 233 258 265 271 273 285 290 294 300 306 300 307 310 296 174 175 160 155 152 161 159 150 144 148 157 154 145 145
305 273 242 146 100 55 96 90 20 348 338 255 206 213 252 248 234 232 249 262 270 273 280 296 305 311 308 317 310 278 177 168 165 156 155 162 161 160 167 172 177 175 167 170
238 277 233 189 177 172 184 156 167 219 244 281 273 240 254 256 262 251 246 251 264 280 282 283 287 283 287 287 275 238 229 208 186 182 182 178 173 169 175 171 170 186 182 178
197 256 320 233 200 147 151 195 175 149 218 275 269 276 295 261 280 274 264 264 263 269 281 289 297 290 287 277 251 215 206 218 215 217 201 182 183 186 175 168 157 177 175 160
173 246 277 288 104 37 165 152 118 146 209 265 283 268 257 261 259 266 265 266 271 282 294 300 296 294 291 281 277 240 202 206 213 209 204 199 198 193 171 161 166 172 179 163
157 188 288 289 202 191 150 163 162 163 192 201 269 269 227 222 224 236 250 253 255 262 273 281 290 292 307 318 310 289 234 218 208 205 202 194 204 189 166 170 173 170 173 161
165 143 247 248 245 207 193 193 167 181 228 213 239 268 258 222 229 234 258 264 260 256 264 270 283 308 330 326 313 282 248 229 225 204 187 197 189 159 162 186 179 160 168 168
147 138 319 322 316 307 225 204 187 163 166 195 218 264 286 287 285 273 269 272 268 263 265 271 275 279 287 300 305 279 250 239 227 190 179 183 176 157 176 199 196 179 173 171
163 191 207 224 242 219 254 246 206 172 204 232 234 259 283 280 273 278 274 267 262 254 249 251 261 268 277 286 297 288 273 247 211 182 178 182 192 192 200 196 188 193 183 177
135 225 241 256 265 250 249 244 221 219 219 226 246 250 263 264 257 261 259 262 261 258 251 240 242 255 273 293 303 309 290 267 195 174 176 199 206 191 186 184 200 206 193 197
162 229 255 271 260 257 266 251 233 234 235 240 258 266 265 265 252 257 254 244 248 251 248 245 244 244 252 259 270 284 294 278 187 174 189 203 193 199 197 208 208 200 209 208
202 187 219 265 282 301 263 233 218 220 213 205 235 254 274 261 241 234 236 237 241 243 237 232 233 231 234 239 236 239 240 234 173 198 206 202 202 220 238 238 221 225 226 220
187 195 210 250 269 241 245 224 208 221 237 224 241 262 255 246 251 239 230 227 241 238 229 229 229 236 236 226 224 226 196 140 166 226 246 238 216 233 269 254 248 254 246 233
194 183 193 202 237 268 286 261 198 211 254 236 240 262 279 293 330 288 250 230 230 228 224 221 217 222 214 204 187 152 139 124 135 246 262 259 237 231 242 257 262 269 259 259
184 190 193 203 225 244 259 294 265 163 269 273 232 253 272 104 252 271 276 253 248 242 220 207 183 163 177 203 151 139 157 166 242 252 260 272 251 230 240 248 255 262 256 258
147 197 214 223 238 257 270 320 85 180 260 301 243 239 196 196 228 267 288 276 250 233 216 160 152 165 195 175 148 157 184 234 254 263 283 317 282 259 259 256 259 268 273 284
191 195 209 206 230 250 245 119 194 241 290 297 278 251 233 251 279 292 284 275 232 142 137 145 147 179 193 152 149 170 243 269 305 5 4 333 319 306 312 285 295 286 264 285
212 206 203 209 230 263 216 226 251 273 279 277 268 267 257 267 275 274 272 263 248 186 168 150 149 148 206 163 163 194 259 304 47 41 353 334 337 333 324 279 277 288 268 262
247 241 228 256 264 269 265 272 278 273 269 276 270 265 245 253 258 255 246 251 222 178 168 140 131 141 252 282 212 213 241 196 120 118 322 329 333 333 336 314 284 273 277 275
229 209 237 259 275 294 276 259 267 280 285 288 288 271 241 229 241 230 228 226 222 233 240 154 160 186 233 251 281 293 215 126 126 226 287 305 302 298 314 310 293 279 259 250
216 210 221 246 247 248 267 270 266 273 277 273 278 281 262 216 223 218 221 225 210 209 179 120 137 189 259 281 342 340 327 147 164 250 279 279 287 290 289 308 322 314 294 299